| time (UTC) | temp F | wind direction | speed knots | gust knots | rain 1hr in | rain 24hr in | rain mn in | humidity % | barometer mb |
| 20260504081542 | 44 | 226 | 3.5 | 5.2 | 0.00 | 0.00 | 0.00 | 82 | 1015.5 |
| 20260504050104 | 48 | 231 | 0.9 | 3.5 | 0.00 | 0.00 | 0.00 | 73 | 1016.7 |
| 20260504044550 | 48 | 231 | 0.0 | 2.6 | 0.00 | 0.00 | 0.00 | 73 | 1016.9 |
| 20260504043043 | 48 | 218 | 0.9 | 4.3 | 0.00 | 0.00 | 0.00 | 72 | 1016.7 |
| 20260504041545 | 48 | 229 | 1.7 | 2.6 | 0.00 | 0.00 | 0.00 | 72 | 1016.3 |
| 20260504040048 | 48 | 229 | 0.9 | 3.5 | 0.00 | 0.00 | 0.00 | 72 | 1016.4 |
| 20260504034548 | 48 | 0 | 2.6 | 5.2 | 0.00 | 0.00 | 0.00 | 71 | 1016.6 |
| 20260504033052 | 48 | 223 | 2.6 | 4.3 | 0.00 | 0.00 | 0.00 | 70 | 1016.5 |
| 20260504031558 | 48 | 240 | 0.0 | 3.5 | 0.00 | 0.00 | 0.00 | 70 | 1016.4 |
| 20260504030043 | 48 | 224 | 1.7 | 3.5 | 0.00 | 0.00 | 0.00 | 70 | 1016.5 |
| 20260504024554 | 48 | 240 | 0.9 | 4.3 | 0.00 | 0.00 | 0.00 | 69 | 1016.3 |
| 20260504023047 | 47 | 258 | 2.6 | 5.2 | 0.00 | 0.00 | 0.00 | 70 | 1016.0 |
| 20260504021551 | 47 | 233 | 2.6 | 5.2 | 0.00 | 0.00 | 0.00 | 70 | 1016.0 |
| 20260504020047 | 47 | 261 | 3.5 | 5.2 | 0.00 | 0.00 | 0.00 | 69 | 1016.0 |
| 20260504014543 | 48 | 235 | 2.6 | 5.2 | 0.00 | 0.00 | 0.00 | 68 | 1016.0 |
| 20260504013047 | 49 | 227 | 1.7 | 4.3 | 0.00 | 0.00 | 0.00 | 67 | 1016.0 |
| 20260504011546 | 50 | 225 | 1.7 | 7.0 | 0.00 | 0.00 | 0.00 | 64 | 1015.9 |
| 20260504010049 | 50 | 219 | 1.7 | 3.5 | 0.00 | 0.00 | 0.00 | 64 | 1015.6 |
| 20260504004556 | 52 | 222 | 3.5 | 7.8 | 0.00 | 0.00 | 0.00 | 60 | 1015.6 |
| 20260504003042 | 53 | 240 | 3.5 | 8.7 | 0.00 | 0.00 | 0.00 | 57 | 1015.6 |
| 20260504001543 | 54 | 228 | 3.5 | 7.8 | 0.00 | 0.00 | 0.00 | 53 | 1015.4 |
| 20260504000050 | 55 | 210 | 2.6 | 6.1 | 0.00 | 0.00 | 0.00 | 53 | 1015.3 |
| 20260503234542 | 57 | 240 | 1.7 | 5.2 | 0.00 | 0.00 | 0.00 | 48 | 1015.5 |
| 20260503233041 | 58 | 222 | 1.7 | 4.3 | 0.00 | 0.00 | 0.00 | 42 | 1015.6 |
| 20260503231554 | 61 | 240 | 0.0 | 3.5 | 0.00 | 0.00 | 0.00 | 35 | 1015.6 |
| 20260503230051 | 63 | 0 | 0.9 | 5.2 | 0.00 | 0.00 | 0.00 | 30 | 1015.6 |
| 20260503224546 | 63 | 311 | 0.9 | 6.1 | 0.00 | 0.00 | 0.00 | 31 | 1015.7 |
| 20260503223043 | 63 | 288 | 1.7 | 5.2 | 0.00 | 0.00 | 0.00 | 29 | 1015.7 |
| 20260503221543 | 64 | 226 | 2.6 | 7.0 | 0.00 | 0.00 | 0.00 | 29 | 1015.9 |
| 20260503220056 | 63 | 235 | 2.6 | 8.7 | 0.00 | 0.00 | 0.00 | 29 | 1015.9 |
| 20260503214546 | 63 | 206 | 4.3 | 7.8 | 0.00 | 0.00 | 0.00 | 27 | 1015.9 |
| 20260503213049 | 64 | 312 | 4.3 | 9.6 | 0.00 | 0.00 | 0.00 | 28 | 1015.9 |
| 20260503211553 | 63 | 167 | 1.7 | 10.4 | 0.00 | 0.00 | 0.00 | 28 | 1016.0 |
| 20260503210051 | 63 | 297 | 2.6 | 8.7 | 0.00 | 0.00 | 0.00 | 28 | 1016.1 |
| 20260503204548 | 63 | 235 | 0.9 | 8.7 | 0.00 | 0.00 | 0.00 | 28 | 1016.3 |
| 20260503203051 | 63 | 212 | 1.7 | 7.8 | 0.00 | 0.00 | 0.00 | 28 | 1016.8 |
| 20260503201542 | 63 | 0 | 1.7 | 7.0 | 0.00 | 0.00 | 0.00 | 28 | 1016.8 |
| 20260503200041 | 61 | 127 | 1.7 | 7.8 | 0.00 | 0.00 | 0.00 | 29 | 1017.2 |
| 20260503194550 | 63 | 311 | 4.3 | 8.7 | 0.00 | 0.00 | 0.00 | 29 | 1017.4 |
| 20260503193055 | 62 | 185 | 3.5 | 8.7 | 0.00 | 0.00 | 0.00 | 29 | 1017.8 |
| 20260503191543 | 61 | 64 | 1.7 | 8.7 | 0.00 | 0.00 | 0.00 | 30 | 1017.9 |
| 20260503190047 | 61 | 298 | 3.5 | 8.7 | 0.00 | 0.00 | 0.00 | 29 | 1018.3 |
| 20260503184555 | 60 | 122 | 1.7 | 7.0 | 0.00 | 0.00 | 0.00 | 29 | 1018.8 |
| 20260503183047 | 60 | 258 | 3.5 | 10.4 | 0.00 | 0.00 | 0.00 | 31 | 1019.0 |
| 20260503181542 | 61 | 291 | 2.6 | 6.1 | 0.00 | 0.00 | 0.00 | 35 | 1019.1 |
| 20260503180042 | 58 | 28 | 2.6 | 7.8 | 0.00 | 0.00 | 0.00 | 33 | 1019.3 |
| 20260503174603 | 58 | 91 | 2.6 | 9.6 | 0.00 | 0.00 | 0.00 | 33 | 1019.4 |
| 20260503173048 | 58 | 315 | 1.7 | 6.1 | 0.00 | 0.00 | 0.00 | 32 | 1019.6 |
| 20260503171546 | 58 | 202 | 3.5 | 9.6 | 0.00 | 0.00 | 0.00 | 32 | 1020.0 |